This demonstration page uses our WeatherBlox Daily Observations layout. Learn more.

Left ArrowRight Arrow

38.89511, -77.03637

Hourly Observations for February 23, 2017

Temp ( °F °C ) Dew Point ( °F °C ) Humidity (%) Winds ( mph kmh ) Pressure ( in mb ) Visibility ( mi km ) Precip ( " mm )
12:52 am 00:52 Cloudy 54 12.2 53 11.7 97 97 S 9 15 29.90 1013 10 16 0.00 0.00
1:16 am 01:16 Cloudy 54 12.2 53 11.7 97 97 S 9 15 29.91 1013 10 16 0.00 0.00
1:52 am 01:52 Cloudy 54 12.2 53 11.7 97 97 S 8 13 29.90 1012 10 16 0.00 0.00
2:00 am 02:00 Cloudy 55 13 54 12 94 94 S 7 11 29.91 1013 10 16 0.00 0.00
2:28 am 02:28 Cloudy 54 12 54 12 100 100 S 8 13 29.88 1012 10 16 0.00 0.00
2:52 am 02:52 Cloudy 54 12.2 53 11.7 97 97 S 7 11 29.88 1012 10 16 0.00 0.00
3:52 am 03:52 Mostly Cloudy 54 12.2 53 11.7 97 97 S 3 6 29.87 1012 10 16 0.00 0.00
4:52 am 04:52 Mostly Cloudy 54 12.2 53 11.7 97 97 S 5 7 29.88 1012 10 16 0.00 0.00
5:52 am 05:52 Mostly Cloudy 54 12.2 53 11.7 97 97 S 8 13 29.89 1012 10 16 0.00 0.00
6:04 am 06:04 Mostly Cloudy 54 12 52 11 94 94 S 8 13 29.88 1012 10 16 0.00 0.00
6:52 am 06:52 Mostly Cloudy 54 12.2 53 11.7 97 97 S 5 7 29.91 1013 10 16 0.00 0.00
7:52 am 07:52 Partly Cloudy 55 12.8 54 12.2 96 96 S 6 9 29.91 1013 10 16 0.00 0.00
8:52 am 08:52 Partly Cloudy 59 15 54 12.2 83 83 S 8 13 29.91 1013 10 16 0.00 0.00
9:52 am 09:52 Partly Cloudy 61 16.1 54 12.2 78 78 S 13 20 29.91 1013 10 16 0.00 0.00
10:52 am 10:52 Partly Cloudy 64 17.8 55 12.8 73 73 S 12 19 29.91 1013 10 16 0.00 0.00
11:52 am 11:52 Partly Cloudy 65 18.3 55 12.8 70 70 S 16 26 29.88 1012 10 16 0.00 0.00
12:52 pm 12:52 Partly Cloudy 68 20 55 12.8 63 63 S 13 20 29.85 1011 10 16 0.00 0.00
1:52 pm 13:52 Partly Cloudy 73 22.8 55 12.8 53 53 S 13 20 29.82 1010 10 16 0.00 0.00
2:52 pm 14:52 Partly Cloudy 72 22.2 54 12.2 53 53 S 17 28 29.80 1009 10 16 0.00 0.00
3:52 pm 15:52 Partly Cloudy 73 22.8 54 12.2 51 51 S 15 24 29.81 1009 10 16 0.00 0.00
4:52 pm 16:52 Partly Cloudy 73 22.8 53 11.7 50 50 S 13 20 29.82 1010 10 16 0.00 0.00
5:52 pm 17:52 Partly Cloudy 67 19.4 53 11.7 61 61 S 10 17 29.83 1010 10 16 0.00 0.00
6:52 pm 18:52 Partly Cloudy 65 18.3 53 11.7 66 66 S 12 19 29.85 1011 10 16 0.00 0.00
7:52 pm 19:52 Partly Cloudy 63 17.2 52 11.1 68 68 S 12 19 29.87 1011 10 16 0.00 0.00
8:52 pm 20:52 Partly Cloudy 63 17.2 52 11.1 68 68 S 10 17 29.88 1012 10 16 0.00 0.00
9:52 pm 21:52 Partly Cloudy 62 16.7 52 11.1 70 70 S 12 19 29.88 1012 10 16 0.00 0.00
10:52 pm 22:52 Mostly Cloudy 60 15.6 52 11.1 75 75 S 9 15 29.89 1012 10 16 0.00 0.00
11:52 pm 23:52 Partly Cloudy 60 15.6 52 11.1 75 75 S 12 19 29.89 1012 10 16 0.00 0.00

Powered by AerisWeather